• In Uzbekistan
  • List of Countries
  • For 7 days
  • Water Temperature
  • Satellite Maps
  • Weather Map
  • Weather Widgets
  • user-avatar
    Login

    Hourly Weather Shaki

    Today, 26 September, Wednesday

    Time Temperature Precipitation Wind Pressure Humidity
    00:00 +24°C° 0 mm 1 mps 734 mmHg 50%
    01:00 +23°C° 0 mm 1 mps 734 mmHg 51%
    02:00 +23°C° 0 mm 1 mps 734 mmHg 52%
    03:00 +23°C° 0 mm 1 mps 734 mmHg 53%
    04:00 +22°C° 0 mm 1 mps 734 mmHg 55%
    05:00 +22°C° 0 mm 1 mps 735 mmHg 56%
    06:00 +21°C° 0 mm 2 mps 735 mmHg 58%
    07:00 +24°C° 0 mm 2 mps 735 mmHg 54%
    08:00 +25°C° 0 mm 2 mps 735 mmHg 49%
    09:00 +27°C° 0 mm 3 mps 736 mmHg 44%
    10:00 +28°C° 0 mm 2 mps 736 mmHg 42%
    11:00 +29°C° 0 mm 2 mps 736 mmHg 39%
    12:00 +30°C° 0 mm 2 mps 736 mmHg 36%
    13:00 +30°C° 0 mm 2 mps 736 mmHg 36%
    14:00 +30°C° 0 mm 2 mps 736 mmHg 36%
    15:00 +30°C° 0 mm 2 mps 736 mmHg 35%
    16:00 +28°C° 0 mm 2 mps 737 mmHg 41%
    17:00 +27°C° 0 mm 2 mps 737 mmHg 46%
    18:00 +25°C° 0 mm 2 mps 737 mmHg 52%
    19:00 +24°C° 0.5 mm 2 mps 738 mmHg 57%
    20:00 +24°C° 0.5 mm 2 mps 739 mmHg 62%
    21:00 +22°C° 0.5 mm 3 mps 739 mmHg 68%
    22:00 +22°C° 1.1 mm 3 mps 739 mmHg 72%
    23:00 +21°C° 1.1 mm 2 mps 739 mmHg 76%

    Tomorrow, 27 September, Thursday

    Time Temperature Precipitation Wind Pressure Humidity
    00:00 +21°C° 1.1 mm 2 mps 740 mmHg 80%
    01:00 +21°C° 0.3 mm 2 mps 740 mmHg 81%
    02:00 +20°C° 0.3 mm 2 mps 740 mmHg 83%
    03:00 +20°C° 0.3 mm 2 mps 740 mmHg 84%
    04:00 +20°C° 0.2 mm 2 mps 740 mmHg 84%
    05:00 +21°C° 0.2 mm 1 mps 740 mmHg 83%
    06:00 +21°C° 0.2 mm 1 mps 740 mmHg 83%
    07:00 +21°C° 0.2 mm 1 mps 740 mmHg 82%
    08:00 +20°C° 0.2 mm 2 mps 741 mmHg 80%
    09:00 +20°C° 0.2 mm 2 mps 741 mmHg 79%
    10:00 +20°C° 0.1 mm 2 mps 741 mmHg 77%
    11:00 +20°C° 0.1 mm 2 mps 741 mmHg 76%
    12:00 +21°C° 0.1 mm 2 mps 741 mmHg 74%
    13:00 +21°C° 0 mm 2 mps 740 mmHg 71%
    14:00 +23°C° 0 mm 2 mps 740 mmHg 68%
    15:00 +23°C° 0 mm 2 mps 740 mmHg 65%
    16:00 +21°C° 0 mm 2 mps 740 mmHg 69%
    17:00 +21°C° 0 mm 2 mps 740 mmHg 72%
    18:00 +21°C° 0 mm 1 mps 740 mmHg 76%
    19:00 +20°C° 0 mm 1 mps 741 mmHg 76%
    20:00 +20°C° 0 mm 1 mps 741 mmHg 76%
    21:00 +20°C° 0 mm 1 mps 741 mmHg 76%
    22:00 +20°C° 0 mm 1 mps 741 mmHg 75%
    23:00 +20°C° 0 mm 1 mps 741 mmHg 75%

    Day after tomorrow, 28 September, Friday

    Time Temperature Precipitation Wind Pressure Humidity
    00:00 +20°C° 0 mm 1 mps 741 mmHg 74%
    01:00 +19°C° 0 mm 1 mps 741 mmHg 75%
    02:00 +19°C° 0 mm 1 mps 741 mmHg 76%
    03:00 +19°C° 0 mm 1 mps 741 mmHg 76%
    04:00 +18°C° 0 mm 1 mps 741 mmHg 76%
    05:00 +18°C° 0 mm 1 mps 741 mmHg 76%
    06:00 +16°C° 0 mm 0 mps 741 mmHg 76%
    07:00 +20°C° 0 mm 1 mps 741 mmHg 71%
    08:00 +21°C° 0 mm 1 mps 741 mmHg 65%
    09:00 +23°C° 0 mm 2 mps 741 mmHg 60%
    10:00 +24°C° 0 mm 2 mps 741 mmHg 57%
    11:00 +24°C° 0 mm 2 mps 741 mmHg 54%
    12:00 +25°C° 0 mm 3 mps 740 mmHg 51%
    13:00 +25°C° 0 mm 3 mps 740 mmHg 51%
    14:00 +26°C° 0 mm 3 mps 739 mmHg 51%
    15:00 +26°C° 0 mm 3 mps 739 mmHg 51%
    16:00 +24°C° 0 mm 3 mps 739 mmHg 58%
    17:00 +23°C° 0 mm 2 mps 739 mmHg 65%
    18:00 +20°C° 0 mm 2 mps 739 mmHg 72%
    19:00 +20°C° 0 mm 2 mps 739 mmHg 72%
    20:00 +20°C° 0 mm 2 mps 739 mmHg 72%
    21:00 +19°C° 0 mm 2 mps 739 mmHg 72%
    22:00 +19°C° 0 mm 2 mps 739 mmHg 71%
    23:00 +20°C° 0 mm 1 mps 738 mmHg 70%

    29 September, Saturday

    Time Temperature Precipitation Wind Pressure Humidity
    00:00 +20°C° 0 mm 1 mps 738 mmHg 68%
    01:00 +20°C° 0 mm 1 mps 738 mmHg 67%
    02:00 +20°C° 0 mm 1 mps 738 mmHg 66%
    03:00 +19°C° 0 mm 1 mps 737 mmHg 65%
    04:00 +19°C° 0 mm 1 mps 737 mmHg 65%
    05:00 +19°C° 0 mm 1 mps 737 mmHg 65%
    06:00 +18°C° 0 mm 2 mps 737 mmHg 65%
    07:00 +20°C° 0 mm 2 mps 737 mmHg 60%
    08:00 +23°C° 0 mm 2 mps 737 mmHg 54%
    09:00 +25°C° 0 mm 2 mps 736 mmHg 49%
    10:00 +26°C° 0 mm 2 mps 736 mmHg 45%
    11:00 +27°C° 0 mm 2 mps 736 mmHg 41%
    12:00 +28°C° 0 mm 2 mps 735 mmHg 37%
    13:00 +28°C° 0 mm 2 mps 735 mmHg 36%
    14:00 +29°C° 0 mm 2 mps 735 mmHg 35%
    15:00 +29°C° 0 mm 2 mps 734 mmHg 33%
    16:00 +27°C° 0 mm 1 mps 734 mmHg 38%
    17:00 +26°C° 0 mm 1 mps 735 mmHg 43%
    18:00 +24°C° 0 mm 1 mps 735 mmHg 48%
    19:00 +23°C° 0 mm 1 mps 735 mmHg 48%
    20:00 +23°C° 0 mm 1 mps 735 mmHg 49%
    21:00 +23°C° 0 mm 2 mps 736 mmHg 49%
    22:00 +21°C° 0 mm 2 mps 736 mmHg 49%
    23:00 +22°C° 0 mm 1 mps 736 mmHg 48%

    30 September, Sunday

    Time Temperature Precipitation Wind Pressure Humidity
    00:00 +22°C° 0 mm 1 mps 735 mmHg 47%
    01:00 +22°C° 0 mm 1 mps 735 mmHg 46%
    02:00 +21°C° 0 mm 1 mps 735 mmHg 44%
    03:00 +21°C° 0 mm 1 mps 735 mmHg 43%
    04:00 +21°C° 0 mm 1 mps 735 mmHg 43%
    05:00 +21°C° 0 mm 1 mps 735 mmHg 43%
    06:00 +21°C° 0 mm 1 mps 736 mmHg 43%
    07:00 +23°C° 0 mm 1 mps 736 mmHg 41%
    08:00 +25°C° 0 mm 2 mps 736 mmHg 38%
    09:00 +27°C° 0 mm 2 mps 736 mmHg 36%
    10:00 +28°C° 0 mm 2 mps 736 mmHg 34%
    11:00 +29°C° 0 mm 2 mps 735 mmHg 32%
    12:00 +30°C° 0 mm 2 mps 735 mmHg 29%
    13:00 +30°C° 0 mm 2 mps 735 mmHg 29%
    14:00 +30°C° 0 mm 2 mps 735 mmHg 28%
    15:00 +31°C° 0 mm 2 mps 735 mmHg 28%
    16:00 +29°C° 0 mm 1 mps 735 mmHg 32%
    17:00 +27°C° 0 mm 1 mps 735 mmHg 36%
    18:00 +25°C° 0 mm 1 mps 735 mmHg 41%
    19:00 +25°C° 0 mm 1 mps 736 mmHg 42%
    20:00 +24°C° 0 mm 2 mps 736 mmHg 42%
    21:00 +24°C° 0 mm 2 mps 737 mmHg 43%
    22:00 +23°C° 0 mm 2 mps 736 mmHg 44%
    23:00 +23°C° 0 mm 2 mps 736 mmHg 45%

    1 October, Monday

    Time Temperature Precipitation Wind Pressure Humidity
    00:00 +21°C° 0 mm 2 mps 736 mmHg 46%
    01:00 +21°C° 0 mm 2 mps 736 mmHg 47%
    02:00 +21°C° 0 mm 2 mps 736 mmHg 48%
    03:00 +21°C° 0 mm 1 mps 736 mmHg 49%
    04:00 +21°C° 0 mm 1 mps 736 mmHg 49%
    05:00 +21°C° 0 mm 1 mps 736 mmHg 49%
    06:00 +21°C° 0 mm 1 mps 736 mmHg 49%
    07:00 +22°C° 0 mm 1 mps 737 mmHg 49%
    08:00 +24°C° 0 mm 1 mps 737 mmHg 48%
    09:00 +26°C° 0 mm 1 mps 737 mmHg 48%
    10:00 +26°C° 0 mm 1 mps 737 mmHg 46%
    11:00 +27°C° 0 mm 2 mps 736 mmHg 44%
    12:00 +28°C° 0 mm 2 mps 736 mmHg 43%
    13:00 +29°C° 0 mm 2 mps 736 mmHg 42%
    14:00 +29°C° 0 mm 2 mps 736 mmHg 40%
    15:00 +29°C° 0 mm 2 mps 736 mmHg 39%
    16:00 +27°C° 0 mm 1 mps 736 mmHg 44%
    17:00 +26°C° 0 mm 1 mps 736 mmHg 49%
    18:00 +24°C° 0 mm 1 mps 736 mmHg 54%
    19:00 +24°C° 0 mm 1 mps 737 mmHg 55%
    20:00 +24°C° 0 mm 1 mps 737 mmHg 55%
    21:00 +23°C° 0 mm 2 mps 737 mmHg 56%
    22:00 +23°C° 0 mm 2 mps 737 mmHg 55%
    23:00 +21°C° 0 mm 2 mps 737 mmHg 54%
    Show more